When you browse on this site, cookies collect data to enhance your experience and personalize the content and advertising you see.
Visit our Privacy Policy to learn more. By continuing to use the site, you agree to this use of cookies and data.
  • In Portugal
  • List of Countries
  • For 7 days
  • Water Temperature
  • Satellite Maps
  • Weather Map
  • Weather Widgets
  • user-avatar
    Login

    Hourly Weather Canberra

    Today, 24 May, Friday

    Time Temperature Precipitation Wind Pressure Humidity
    00:00 +8°C° 0 mm 1 mps 715 mmHg 77%
    01:00 +8°C° 0 mm 1 mps 714 mmHg 76%
    02:00 +8°C° 0 mm 1 mps 714 mmHg 74%
    03:00 +7°C° 0 mm 1 mps 714 mmHg 72%
    04:00 +8°C° 0 mm 1 mps 713 mmHg 69%
    05:00 +7°C° 0 mm 1 mps 713 mmHg 69%
    06:00 +7°C° 0 mm 1 mps 713 mmHg 68%
    07:00 +7°C° 0 mm 1 mps 713 mmHg 67%
    08:00 +10°C° 0 mm 1 mps 713 mmHg 60%
    09:00 +13°C° 0 mm 1 mps 713 mmHg 53%
    10:00 +15°C° 0 mm 1 mps 714 mmHg 45%
    11:00 +16°C° 0 mm 2 mps 714 mmHg 43%
    12:00 +18°C° 0 mm 3 mps 713 mmHg 40%
    13:00 +19°C° 0 mm 3 mps 713 mmHg 38%
    14:00 +18°C° 0 mm 3 mps 713 mmHg 42%
    15:00 +18°C° 0 mm 3 mps 712 mmHg 46%
    16:00 +16°C° 0 mm 2 mps 712 mmHg 53%
    17:00 +15°C° 0 mm 1 mps 712 mmHg 58%
    18:00 +13°C° 0 mm 1 mps 712 mmHg 64%
    19:00 +12°C° 0 mm 1 mps 712 mmHg 69%
    20:00 +11°C° 0 mm 1 mps 712 mmHg 71%
    21:00 +11°C° 0 mm 1 mps 712 mmHg 74%
    22:00 +9°C° 0 mm 0 mps 712 mmHg 77%
    23:00 +10°C° 0 mm 1 mps 712 mmHg 78%

    Tomorrow, 25 May, Saturday

    Time Temperature Precipitation Wind Pressure Humidity
    00:00 +9°C° 0 mm 1 mps 711 mmHg 79%
    01:00 +9°C° 0 mm 1 mps 711 mmHg 80%
    02:00 +9°C° 0 mm 1 mps 711 mmHg 80%
    03:00 +9°C° 0 mm 1 mps 711 mmHg 81%
    04:00 +8°C° 0 mm 1 mps 710 mmHg 81%
    05:00 +8°C° 0 mm 1 mps 710 mmHg 81%
    06:00 +8°C° 0 mm 1 mps 710 mmHg 80%
    07:00 +8°C° 0 mm 1 mps 710 mmHg 80%
    08:00 +9°C° 0 mm 2 mps 710 mmHg 70%
    09:00 +13°C° 0 mm 2 mps 711 mmHg 60%
    10:00 +16°C° 0 mm 3 mps 711 mmHg 49%
    11:00 +17°C° 0 mm 4 mps 710 mmHg 46%
    12:00 +19°C° 0 mm 5 mps 710 mmHg 43%
    13:00 +20°C° 0 mm 6 mps 709 mmHg 40%
    14:00 +19°C° 0 mm 5 mps 709 mmHg 44%
    15:00 +19°C° 0 mm 4 mps 709 mmHg 48%
    16:00 +18°C° 0 mm 3 mps 708 mmHg 51%
    17:00 +16°C° 0 mm 3 mps 708 mmHg 57%
    18:00 +14°C° 0 mm 2 mps 708 mmHg 64%
    19:00 +13°C° 0 mm 2 mps 708 mmHg 70%
    20:00 +13°C° 0 mm 2 mps 708 mmHg 68%
    21:00 +13°C° 0 mm 2 mps 708 mmHg 65%
    22:00 +13°C° 0 mm 2 mps 707 mmHg 62%
    23:00 +12°C° 0.2 mm 3 mps 707 mmHg 68%

    Day after tomorrow, 26 May, Sunday

    Time Temperature Precipitation Wind Pressure Humidity
    00:00 +12°C° 0.2 mm 3 mps 707 mmHg 74%
    01:00 +11°C° 0.2 mm 4 mps 707 mmHg 80%
    02:00 +11°C° 0.1 mm 4 mps 707 mmHg 84%
    03:00 +10°C° 0.1 mm 4 mps 706 mmHg 88%
    04:00 +10°C° 0.1 mm 4 mps 706 mmHg 92%
    05:00 +10°C° 0 mm 4 mps 706 mmHg 91%
    06:00 +8°C° 0 mm 4 mps 706 mmHg 91%
    07:00 +8°C° 0 mm 4 mps 707 mmHg 90%
    08:00 +10°C° 0 mm 4 mps 707 mmHg 82%
    09:00 +10°C° 0 mm 4 mps 707 mmHg 74%
    10:00 +10°C° 0 mm 5 mps 708 mmHg 66%
    11:00 +10°C° 0 mm 5 mps 707 mmHg 61%
    12:00 +12°C° 0 mm 5 mps 707 mmHg 55%
    13:00 +13°C° 0 mm 5 mps 707 mmHg 49%
    14:00 +12°C° 0 mm 5 mps 707 mmHg 51%
    15:00 +12°C° 0 mm 5 mps 706 mmHg 53%
    16:00 +10°C° 0 mm 5 mps 706 mmHg 56%
    17:00 +10°C° 0 mm 4 mps 706 mmHg 62%
    18:00 +7°C° 0 mm 4 mps 706 mmHg 69%
    19:00 +7°C° 0 mm 3 mps 706 mmHg 76%
    20:00 +6°C° 0 mm 4 mps 706 mmHg 75%
    21:00 +5°C° 0 mm 4 mps 706 mmHg 75%
    22:00 +5°C° 0 mm 4 mps 707 mmHg 75%
    23:00 +5°C° 0 mm 5 mps 706 mmHg 74%

    27 May, Monday

    Time Temperature Precipitation Wind Pressure Humidity
    00:00 +4°C° 0 mm 6 mps 705 mmHg 73%
    01:00 +4°C° 0 mm 6 mps 705 mmHg 72%
    02:00 +4°C° 0 mm 6 mps 704 mmHg 73%
    03:00 +5°C° 0 mm 6 mps 703 mmHg 73%
    04:00 +5°C° 0 mm 6 mps 703 mmHg 74%
    05:00 +5°C° 0.3 mm 7 mps 703 mmHg 78%
    06:00 +5°C° 0.3 mm 7 mps 703 mmHg 82%
    07:00 +5°C° 0.3 mm 7 mps 703 mmHg 87%
    08:00 +4°C° 0.4 mm 7 mps 703 mmHg 80%
    09:00 +4°C° 0.4 mm 7 mps 704 mmHg 74%
    10:00 +4°C° 0.4 mm 7 mps 704 mmHg 68%
    11:00 +5°C° 0.2 mm 8 mps 704 mmHg 66%
    12:00 +5°C° 0.2 mm 8 mps 704 mmHg 64%
    13:00 +5°C° 0.2 mm 8 mps 703 mmHg 63%
    14:00 +5°C° 0 mm 8 mps 704 mmHg 61%
    15:00 +5°C° 0 mm 8 mps 704 mmHg 59%
    16:00 +4°C° 0 mm 7 mps 704 mmHg 58%
    17:00 +4°C° 0 mm 7 mps 705 mmHg 62%
    18:00 +3°C° 0 mm 6 mps 705 mmHg 66%
    19:00 +2°C° 0 mm 5 mps 706 mmHg 70%
    20:00 +2°C° 0 mm 5 mps 706 mmHg 72%
    21:00 +3°C° 0 mm 4 mps 707 mmHg 73%
    22:00 +4°C° 0 mm 4 mps 707 mmHg 75%
    23:00 +3°C° 0 mm 4 mps 707 mmHg 76%

    28 May, Tuesday

    Time Temperature Precipitation Wind Pressure Humidity
    00:00 +3°C° 0 mm 4 mps 707 mmHg 78%
    01:00 +1°C° 0 mm 4 mps 707 mmHg 79%
    02:00 +1°C° 0 mm 4 mps 706 mmHg 80%
    03:00 +1°C° 0 mm 4 mps 706 mmHg 80%
    04:00 +1°C° 0 mm 4 mps 706 mmHg 81%
    05:00 +1°C° 0 mm 4 mps 706 mmHg 81%
    06:00 +3°C° 0 mm 4 mps 707 mmHg 81%
    07:00 +3°C° 0 mm 4 mps 707 mmHg 81%
    08:00 +3°C° 0 mm 5 mps 707 mmHg 76%
    09:00 +5°C° 0 mm 5 mps 707 mmHg 71%
    10:00 +7°C° 0 mm 6 mps 707 mmHg 67%
    11:00 +7°C° 0 mm 6 mps 707 mmHg 66%
    12:00 +7°C° 0 mm 6 mps 706 mmHg 66%
    13:00 +8°C° 0 mm 7 mps 705 mmHg 66%
    14:00 +8°C° 0 mm 7 mps 705 mmHg 68%
    15:00 +6°C° 0 mm 7 mps 705 mmHg 70%
    16:00 +6°C° 0 mm 7 mps 705 mmHg 73%
    17:00 +7°C° 0 mm 6 mps 705 mmHg 74%
    18:00 +7°C° 0 mm 6 mps 705 mmHg 76%
    19:00 +7°C° 0 mm 6 mps 704 mmHg 77%
    20:00 +6°C° 0 mm 7 mps 704 mmHg 78%
    21:00 +6°C° 0 mm 7 mps 704 mmHg 78%
    22:00 +6°C° 0 mm 8 mps 704 mmHg 79%
    23:00 +6°C° 0 mm 8 mps 703 mmHg 78%

    29 May, Wednesday

    Time Temperature Precipitation Wind Pressure Humidity
    00:00 +6°C° 0 mm 8 mps 703 mmHg 78%
    01:00 +6°C° 0 mm 9 mps 702 mmHg 77%
    02:00 +6°C° 0 mm 9 mps 702 mmHg 77%
    03:00 +6°C° 0 mm 9 mps 701 mmHg 77%
    04:00 +6°C° 0 mm 8 mps 701 mmHg 77%
    05:00 +6°C° 0 mm 8 mps 701 mmHg 79%
    06:00 +6°C° 0 mm 8 mps 701 mmHg 80%
    07:00 +6°C° 0 mm 7 mps 701 mmHg 81%
    08:00 +6°C° 0.1 mm 8 mps 701 mmHg 76%
    09:00 +7°C° 0.1 mm 8 mps 701 mmHg 71%
    10:00 +7°C° 0.1 mm 9 mps 701 mmHg 67%
    11:00 +7°C° 0.2 mm 8 mps 701 mmHg 69%
    12:00 +7°C° 0.2 mm 8 mps 701 mmHg 71%
    13:00 +7°C° 0.2 mm 8 mps 700 mmHg 73%
    14:00 +7°C° 0.6 mm 6 mps 701 mmHg 76%
    15:00 +6°C° 0.6 mm 5 mps 701 mmHg 80%
    16:00 +5°C° 0.6 mm 4 mps 701 mmHg 83%
    17:00 +4°C° 0.1 mm 4 mps 702 mmHg 84%
    18:00 +3°C° 0.1 mm 4 mps 702 mmHg 85%
    19:00 +3°C° 0.1 mm 3 mps 703 mmHg 86%
    20:00 +2°C° 0 mm 3 mps 704 mmHg 86%
    21:00 +2°C° 0 mm 3 mps 704 mmHg 87%
    22:00 +1°C° 0 mm 3 mps 704 mmHg 87%
    23:00 +1°C° 0 mm 3 mps 705 mmHg 87%
    Show more